Flag for Israel Weather past 2 weeks in Jerusalem, Israel

Now
70 °F

Scattered clouds.


Feels Like: 70 °F
Forecast: 47 / 55 °F
Wind: 8 mph from South

Location: Ben Gurion International Airport

Current Time: Mar 31, 2015 at 12:13:18 PM

Latest Report: Mar 31, 2015 at 11:20 AM


Visibility: N/A

Pressure: 30.01 "Hg

Humidity: 53%

Dew point: 52 °F

Location of JerusalemLocation

Historic Weather in Jerusalem — Graph

°F

Jerusalem temperature yesterday

Maximum temperature yesterday: 72 °F (at 11:20 AM)
Minimum temperature yesterday: 55 °F (at 5:50 AM)
Average temperature yesterday: 63 °F

Past Weeks' High & Low Weather Summary

 TemperatureHumidityPressure
High90 °F (Mar 27, 2:20 PM)88% (Mar 17, 5:50 AM)30.18 "Hg (Mar 17, 5:50 AM)
Low48 °F (Mar 23, 5:50 AM)17% (Mar 27, 2:20 PM)29.62 "Hg (Mar 28, 4:50 AM)
Average64 °F59%29.99 "Hg
* Reported Mar 16 9:20 AM — Mar 31 10:50 AM, Jerusalem, Weather by CustomWeather, © 2015

Note: Actual official high and low records may vary slightly from our data, if they occured in-between our weather recording intervals... More about our weather records

Advertising

Jerusalem weather history for previous 24 hours

 ConditionsComfort  
Time TempWeatherWind HumidityBarometerVisibility
10:50 AM
Tue, Mar 31
68 °FScattered clouds.8 mph53%30.04 "HgN/A
10:20 AM66 °FScattered clouds.8 mph60%30.04 "HgN/A
9:50 AM64 °FScattered clouds.12 mph64%30.04 "HgN/A
9:20 AM64 °FPassing clouds.12 mph68%30.04 "HgN/A
8:50 AM63 °FPassing clouds.9 mph73%30.04 "HgN/A
8:20 AM61 °FPassing clouds.8 mph72%30.01 "HgN/A
7:50 AM59 °FPassing clouds.8 mph77%30.01 "HgN/A
7:20 AM57 °FPassing clouds.7 mph82%30.01 "HgN/A
6:50 AM57 °FPassing clouds.6 mph82%30.01 "HgN/A
6:20 AM57 °FPassing clouds.5 mph82%30.01 "HgN/A
5:50 AM57 °FPassing clouds.5 mph82%30.01 "HgN/A
5:20 AM57 °FPassing clouds.7 mph82%30.01 "HgN/A
4:50 AM57 °FPassing clouds.5 mph82%30.01 "HgN/A
4:20 AM57 °FPassing clouds.7 mph82%30.01 "HgN/A
3:50 AM57 °FPassing clouds.6 mph77%30.01 "HgN/A
3:20 AM57 °FPassing clouds.5 mph82%30.01 "HgN/A
2:20 AM57 °FClear.6 mph82%30.01 "Hg10 mi
1:50 AM57 °FClear.5 mph82%30.01 "Hg10 mi
1:20 AM59 °FClear.5 mph77%30.01 "Hg10 mi
12:50 AM59 °FPassing clouds.5 mph77%30.01 "HgN/A
12:20 AM59 °FPassing clouds.6 mph77%30.01 "HgN/A
11:50 PM
Mon, Mar 30
59 °FPassing clouds.6 mph77%30.01 "HgN/A
11:20 PM59 °FPassing clouds.5 mph77%30.04 "HgN/A
10:50 PM59 °FPassing clouds.3 mph77%30.01 "HgN/A
10:20 PM59 °FClear.3 mph77%30.01 "Hg10 mi
9:50 PM61 °FClear.2 mph72%30.01 "Hg10 mi
9:20 PM61 °FPassing clouds.2 mph72%30.01 "HgN/A
8:50 PM61 °FPassing clouds.3 mph72%30.01 "HgN/A
8:20 PM61 °FPassing clouds.7 mph72%30.01 "HgN/A
7:50 PM63 °FPassing clouds.10 mph68%30.01 "HgN/A
7:20 PM63 °FPassing clouds.8 mph73%29.98 "HgN/A
6:50 PM63 °FScattered clouds.13 mph73%29.98 "HgN/A
6:20 PM64 °FScattered clouds.13 mph64%29.98 "HgN/A
5:50 PM64 °FScattered clouds.15 mph64%29.98 "HgN/A
5:20 PM66 °FScattered clouds.16 mph60%29.98 "HgN/A
4:50 PM66 °FScattered clouds.15 mph60%29.98 "HgN/A
4:20 PM66 °FScattered clouds.16 mph64%29.98 "HgN/A
3:50 PM68 °FScattered clouds.15 mph56%29.98 "HgN/A
3:20 PM68 °FScattered clouds.16 mph56%29.98 "HgN/A
2:50 PM68 °FScattered clouds.15 mph64%29.98 "HgN/A
2:20 PM68 °FScattered clouds.15 mph64%29.98 "HgN/A
1:50 PM70 °FScattered clouds.17 mph60%29.98 "HgN/A
1:20 PM70 °FScattered clouds.16 mph60%29.98 "HgN/A
12:50 PM70 °FPassing clouds.20 mph53%29.98 "HgN/A
12:20 PM70 °FPassing clouds.18 mph53%29.98 "HgN/A
Weather by CustomWeather, © 2015

See weather overviewHow to use our weather pages